Regional Weather Roundup
Issued by NWS

Home | Current Version | Previous Version | Text Only | Print | Product List | Glossary On
Versions: 1 2 3 4 5 6 7 8 9 10 11 12 13 14 15 16 17 18 19 20 21 22 23 24 25 26 27 28 29 30 31 32 33 34 35 36 37 38 39 40 41 42 43 44 45 46 47 48 49 50
000
ASUS43 KTOP 091308
RWRKS

WEATHER ROUNDUP FOR KANSAS
NATIONAL WEATHER SERVICE GOODLAND KS
700 AM CST FRI DEC 09 2016

NOTE:  "FAIR" INDICATES FEW OR NO CLOUDS BELOW 12,000 FEET WITH NO
SIGNIFICANT WEATHER AND/OR OBSTRUCTIONS TO VISIBILITY.

KSZ001>006-013>018-027>032-041>047-091400-
NORTHWEST KANSAS

CITY           SKY/WX    TMP DP  RH WIND       PRES   REMARKS
GOODLAND       CLOUDY     8   5  87 SE10      30.24F WCI  -6
HAYS           CLOUDY    18  11  74 SE9       30.49S
HILL CITY      CLOUDY    18   9  68 S9        30.45R
RUSSELL        CLOUDY    17  11  77 SE14      30.49F WCI   3
$$

KSZ061>065-074>080-084>089-091400-
SOUTHWEST KANSAS

CITY           SKY/WX    TMP DP  RH WIND       PRES   REMARKS
DODGE CITY     CLOUDY    20   6  55 SE17      30.41F WCI   5
ELKHART          N/A    N/A N/A N/A MISG        N/A
GARDEN CITY    CLOUDY    21   6  52 S15G25    30.35F WCI   8
GREAT BEND     CLOUDY    19  11  70 SE12      30.50F WCI   7
LIBERAL        CLOUDY    27   9  46 SE13      30.36R WCI  16
PRATT          CLOUDY    18   8  66 SE10      30.51S WCI   6
$$

KSZ066>073-081>083-090>101-091400-
SOUTHEAST KANSAS

CITY           SKY/WX    TMP DP  RH WIND       PRES   REMARKS
CHANUTE        CLOUDY    13   9  84 CALM      30.65S
COFFEYVILLE    CLOUDY    13  10  88 CALM      30.68S
HUTCHINSON     CLOUDY    19  13  77 SE6       30.56F
MEDICINE LODGE   N/A     19  11  70 SE10      30.55F WCI   7
NEWTON         CLOUDY    16  11  80 SE8       30.58F
PARSONS        CLOUDY    10   7  87 CALM      30.67S
WICHITA INTL   CLOUDY    17  12  80 SE6       30.58F
WICHITA JABRA  CLOUDY    14  10  84 SE6       30.58F
WICHITA MCCONL CLOUDY    15   9  75 E7        30.58F
WINFIELD       CLOUDY    14  10  84 SE5       30.62F
$$

KSZ007>012-019>026-033>040-048>060-102>105-091400-
NORTHEAST KANSAS

CITY           SKY/WX    TMP DP  RH WIND       PRES   REMARKS
CONCORDIA      CLOUDY    16  11  80 SE6       30.56F
EMPORIA        CLOUDY    15  11  83 S3        30.62S
LAWRENCE       CLOUDY    11   9  92 CALM      30.66S
MANHATTAN      CLOUDY    15   9  76 CALM      30.63R
MARYSVILLE     CLOUDY    10   9  92 CALM      30.60F
OLATHE IND     CLOUDY    14  10  84 CALM      30.64S
OLATHE EXE     CLOUDY    12   9  87 CALM      30.63S
SALINA         CLOUDY    15  10  80 SE7       30.59F
TOPEKA BILLARD CLOUDY    14   9  80 CALM      30.65S
TOPEKA FORBES  CLOUDY    14   9  80 CALM      30.64R
$$




USA.gov is the U.S. government's official web portal to all federal, state and local government web resources and services.